Orbital Elements at Epoch 2459200.5 (2020-Dec-17.0) TDB
Reference: JPL 24 (heliocentric ecliptic J2000)
Element | Value | Uncertainty (1-sigma) | Units |
e | .1758247926589355 | 5.3287e-08 | |
a | 2.525921712510819 | 8.1542e-09 | au |
q | 2.081802051135901 | 1.367e-07 | au |
i | 3.746959848806919 | 5.7468e-06 | deg |
node | 178.1610390654994 | 4.5094e-05 | deg |
peri | 163.867539737894 | 4.6374e-05 | deg |
M | 300.6566819065641 | 1.0411e-05 | deg |
tp | 2459442.211648766858 (2021-Aug-15.71164877) | 4.2793e-05 | TDB |
period | 1466.31830426236 4.01 | 7.1004e-06 1.944e-08 | d yr |
n | .2455128596250458 | 1.1889e-09 | deg/d |
Q | 2.970041373885737 | 9.588e-09 | au |
|
| | Orbit Determination Parameters
Additional Information
|